Погода в Скобелевской

Россия / Краснодарский край     45°11′49″N   40°25′12″E
темп.,
°C
ветер,
м/с
пор.,
м/с
влажн.,
%
обл.,
%
осадки,
мм/ч
давл.,
гПа
погр.,
м
6 марта, сб
сб600:00+3ююз23760 0.0 101722
03:00+2ю22741 0.0 101822
06:00+2ююв226273 0.0 101622
09:00+6юз284874 0.0 1016342
12:00+13зюз101536100 0.0 10141120
15:00+13зюз91542100 0.0 10121272
18:00+10зюз81660100 0.0 1012900
21:00+6зсз81290100 2.9 1015836
7 марта, вс
вс700:000сз71197100 5.4 1019691
03:00−1сз5979100 6.4 1023626
06:00−3зсз36792 0.0 1025284
09:00−1сз34611 0.0 1026694
12:00+1зсз34440 0.0 10251344
15:00+3з34440 0.0 10231572
18:00+1зюз33623 0.0 102268
21:00−1юз37752 0.0 1023167
8 марта, пн
пн800:00−2юз36750 0.0 1022169
03:00−2юз410740 0.0 1022384
06:00−1юз411710 0.0 1020359
09:00+2зюз710550 0.0 10201005
12:00+5зюз810500 0.0 10181520
15:00+6з710548 0.0 10161533
18:00+2зюз5107369 0.0 1016351
21:000юз5137752 0.0 1018371
9 марта, вт
вт900:00−1юз4127911 0.0 1017421
03:000юз4137949 0.0 1016536
06:00+1зюз51382100 0.0 1016720
09:00+2зюз81393100 0.3 1017775
12:00+2зюз6988100 1.4 1017661
15:00+2зсз5990100 4.4 1018843
18:00+1зсз5106399 0.3 1019419
21:00−2зсз237379 0.3 102346
10 марта, ср
ср1000:00−2зюз22730 0.0 102328
03:00−3юз34757 0.0 102383
06:00−2юз237749 0.0 102357
09:000юз216639 0.0 1024474
12:00+3ююв015699 0.0 10221154
15:00+3св215498 0.0 10201177
18:00+1св3571100 0.0 1019148
21:00−2всв3682100 0.0 1022144